Regional Weather Roundup
Issued by NWS

Home | Current Version | Previous Version | Graphics & Text | Print | Product List | Glossary On
Versions: 1 2 3 4 5 6 7 8 9 10 11 12 13 14 15 16 17 18 19 20 21 22 23 24 25 26 27
000
ASUS45 KSLC 270510
RWRUT

UTAH REGIONAL WEATHER ROUNDUP
NATIONAL WEATHER SERVICE SALT LAKE CITY UT
1100 PM MDT TUE JUL 26 2016

UTZ001>011-023>025-270600-

NORTHERN UTAH

CITY           SKY/WX    TMP DP  RH WIND       PRES   REMARKS
BRIGHAM CITY     N/A     82  24  12 CALM      30.04R
HILL AFB       CLEAR     82  33  17 VRB6      30.07R
LOGAN          CLEAR     76  37  24 SW8       30.06R
OGDEN          CLEAR     81  37  20 N10       30.03R
PROVO AIRPORT  CLEAR     77  43  29 NE3       30.05R
SALT LAKE CITY CLEAR     85  29  13 NW7       30.03R
VERNAL         CLOUDY    68  44  42 NW6       30.15R
WENDOVER       CLEAR     91  28  10 N18       30.04R
HEBER CITY     CLEAR     63  41  45 CALM      30.16R

$$

UTZ012>022-026-027-270600-

SOUTHERN/CENTRAL UTAH

CITY           SKY/WX    TMP DP  RH WIND       PRES   REMARKS
BLANDING       PTCLDY    75  42  30 NE15      30.27S
BRYCE CANYON   CLEAR     56  43  61 W7        30.36R
CEDAR CITY     CLEAR     79  40  24 S6        30.14R
DELTA          CLEAR     77  30  18 NE6       30.05R
MILFORD        CLEAR     77  45  32 SW10      30.06R
MOAB/CYNLANDS  PTCLDY    82  41  23 NE3       30.05S
PRICE          CLEAR     72  33  24 N10       30.19S
ST GEORGE      CLEAR     93  46  20 E10       29.92R

$$

REGIONAL REPORTS     COLORADO/ARIZONA

CITY           SKY/WX    TMP DP  RH WIND       PRES   REMARKS
CRAIG, CO      CLOUDY    63  45  51 E3        30.25R
GRAND JUNCTION CLEAR     81  40  23 E12       30.11S
RIFLE          CLEAR     70  44  39 SE6       30.20R
MONTROSE       CLEAR     72  42  34 SE9       30.23R
CORTEZ         CLEAR     67  45  45 S3        30.22R
PAGE, AZ       CLEAR     88  41  19 SW8       30.03R
GRAND CANYON   PTCLDY    61  42  49 CALM      30.28R
KINGMAN        PTCLDY    92  49  22 S9        29.98R
FLAGSTAFF      MOCLDY    63  55  75 CALM      30.32R

$$

REGIONAL REPORTS    NEVADA/IDAHO/WYOMING

CITY           SKY/WX    TMP DP  RH WIND       PRES   REMARKS
LAS VEGAS, NV  PTCLDY   105  39  10 SW5       29.78R HX  99
ELY            CLEAR     60  21  22 SW5       30.21R
ELKO           CLEAR     74  22  14 CALM      30.12R
POCATELLO, ID  CLEAR     73  42  32 NE3       30.09R
BURLEY         CLEAR     70  44  39 S3        30.04R
EVANSTON, WY   CLEAR     68  18  14 SW9       30.27R
ROCK SPRINGS   CLEAR     69  29  22 S7        30.22S
KEMMERER         N/A     64  32  29 N10       30.28S

$$




USA.gov is the U.S. government's official web portal to all federal, state and local government web resources and services.